Theta_e
312 312 311 311 309 305 301 301 301 302 302 302 302 303 303 303 303 304 304 304 304 305 305 305 306 306 306 308 307 308 309 310 313 317 323 325 319 318 321 327 328 325 325 336 344 344 348 349 346 346 348 352 351 350 346 346 346 349 361 354 346 349 344 346 348 346 347 346 340 339 344 344 347 347 346 345 345 349 350 349 350 350 352 353 354 354 355 355
311 312 312 310 306 301 301 301 301 301 301 301 302 302 302 303 303 303 304 304 305 305 305 306 306 306 307 307 308 309 311 313 319 323 326 321 320 319 320 325 327 326 326 336 346 347 345 345 346 345 346 350 349 348 346 344 343 349 362 356 349 351 346 346 347 344 346 347 342 340 344 343 345 345 345 345 345 347 347 349 350 352 354 353 354 354 355 355
311 311 310 307 303 301 301 300 300 301 300 301 301 301 302 302 303 303 304 304 304 304 305 306 305 307 307 306 309 310 315 322 328 331 329 323 325 320 319 323 326 327 326 331 338 341 342 343 345 345 346 349 349 346 345 344 341 347 358 358 352 348 345 346 345 343 343 346 345 342 341 341 341 341 343 344 346 346 346 350 353 355 356 353 353 354 354 354
311 310 307 303 301 301 300 300 300 300 300 301 301 301 302 302 302 302 303 303 304 304 305 305 306 307 306 307 309 312 321 329 332 331 331 327 324 321 322 324 327 327 324 324 329 336 340 341 343 345 348 350 348 344 342 341 340 344 351 355 352 345 345 344 342 342 343 348 348 345 340 340 339 339 340 342 345 346 347 351 355 356 355 353 353 353 353 353
311 309 305 300 300 300 300 300 299 300 300 300 300 301 301 302 302 302 303 303 304 305 305 305 306 306 306 308 311 316 324 329 327 330 329 327 326 325 326 324 326 325 323 325 328 331 334 338 341 343 347 348 346 343 340 337 338 344 346 348 348 344 345 344 341 341 345 349 350 346 340 339 337 337 339 342 346 345 347 351 352 353 353 353 353 353 353 353
310 307 302 300 300 300 300 299 299 299 300 300 300 300 301 301 302 302 303 303 304 305 305 306 306 306 307 309 315 321 325 320 323 328 323 325 325 324 324 322 323 322 323 329 332 331 331 335 339 341 343 343 342 340 339 336 336 342 344 345 345 343 344 343 342 342 346 349 350 346 340 340 338 337 339 342 345 344 347 350 351 352 352 352 353 353 353 353
305 302 300 300 300 299 299 299 299 299 300 300 300 301 301 301 301 302 303 303 304 305 306 306 306 306 306 312 322 326 326 320 321 322 322 324 321 322 322 321 322 322 326 332 334 333 332 335 338 341 339 339 339 337 336 336 335 338 342 344 343 343 342 343 342 342 346 348 349 347 341 341 339 338 339 340 342 345 348 350 350 351 352 352 353 352 352 354
301 300 300 300 300 299 299 299 300 300 300 300 300 301 301 301 301 302 303 303 304 305 306 306 306 307 309 317 324 325 324 325 322 319 324 323 321 323 321 323 323 323 330 334 333 333 334 336 338 339 336 336 336 336 337 337 336 335 339 344 343 342 342 343 342 340 346 349 348 346 344 342 340 339 339 341 344 347 349 350 351 351 351 352 351 352 353 354
302 302 301 300 300 299 300 300 300 300 300 300 301 301 301 301 302 302 303 303 304 305 306 306 306 309 315 322 326 322 321 322 321 322 326 324 324 324 322 324 322 324 332 333 334 334 336 337 338 338 335 334 333 334 336 336 336 334 336 341 342 341 341 342 343 340 344 347 346 345 345 342 340 341 339 342 345 347 350 351 351 351 351 352 351 351 353 353
304 302 301 300 300 300 300 300 300 300 301 301 301 301 302 302 302 302 303 304 305 306 306 306 307 312 319 326 329 324 322 319 324 327 326 326 325 323 322 325 324 326 330 332 334 335 336 336 336 335 333 332 331 332 333 335 335 334 333 335 337 340 342 342 342 340 341 343 346 345 344 342 340 342 340 341 346 347 350 352 351 351 351 351 350 351 352 352
306 304 301 301 300 300 300 300 301 301 301 301 301 302 302 302 303 303 304 305 305 306 306 307 310 316 322 329 328 323 320 320 326 329 326 326 327 326 325 327 328 327 328 330 333 335 336 334 332 333 332 331 330 330 331 332 332 333 332 331 332 335 339 341 341 339 339 342 344 345 345 343 342 343 341 342 346 347 349 351 350 351 352 351 350 351 353 352
308 305 302 301 301 301 301 301 301 301 301 302 302 302 303 303 303 304 305 305 306 307 307 310 315 320 326 331 329 324 318 320 322 323 325 329 332 331 329 329 329 327 327 327 329 332 333 332 330 329 331 330 329 329 329 330 330 330 330 330 330 330 334 339 339 339 338 341 343 343 343 344 345 343 340 341 344 346 348 350 350 350 351 350 351 352 352 351
308 306 303 302 301 301 301 301 301 301 301 302 302 303 303 304 304 305 306 307 308 307 308 314 319 322 328 332 328 321 317 320 320 321 324 328 332 331 330 329 328 328 328 326 327 330 330 330 329 328 329 327 326 328 328 329 329 330 330 330 330 328 330 337 340 340 339 341 343 342 336 340 347 342 339 340 342 346 347 348 348 349 350 349 351 351 351 350
307 305 304 304 302 301 301 301 301 301 301 302 302 303 304 305 306 306 308 310 310 310 314 318 321 325 331 332 324 319 320 321 320 323 323 325 327 326 327 327 326 328 329 329 329 329 329 330 328 327 327 325 326 326 326 327 327 330 329 329 330 322 324 336 339 340 339 339 343 341 332 338 348 343 339 338 341 345 346 348 347 348 349 348 349 351 350 350
306 305 305 305 303 302 302 301 301 301 301 302 303 303 305 306 307 309 312 312 312 314 318 320 322 329 335 331 326 323 326 327 324 324 324 325 326 326 327 326 325 325 325 328 328 329 330 329 328 327 326 325 326 325 326 326 327 329 323 321 326 320 323 334 336 339 339 339 341 339 333 340 348 343 340 338 340 344 345 347 346 347 348 346 349 350 349 349
305 305 305 305 304 303 302 302 301 301 302 302 303 305 306 308 309 313 314 314 314 316 321 325 325 329 335 332 330 327 330 333 330 326 324 325 327 325 326 326 326 326 325 325 326 328 329 329 329 327 326 326 325 326 326 323 322 327 323 316 320 320 321 328 334 339 338 339 342 339 337 343 349 345 342 340 340 342 344 345 344 345 346 346 348 349 348 348
305 305 305 305 305 304 303 302 302 302 302 302 304 307 308 311 316 318 316 315 318 318 320 327 328 328 332 330 330 329 328 332 330 328 326 325 326 327 326 326 326 325 325 325 325 327 327 328 329 329 328 326 326 326 321 315 314 321 323 318 320 322 320 322 332 339 338 340 342 341 342 345 348 347 344 342 340 342 343 343 344 345 346 346 347 347 348 349
305 305 305 305 305 305 304 303 302 302 302 303 306 310 313 319 323 321 318 319 323 323 322 325 326 328 331 330 332 332 328 328 328 329 327 325 326 326 325 325 325 324 324 325 325 326 326 327 328 328 328 326 327 325 316 314 316 316 318 317 318 322 322 321 329 337 339 340 342 341 342 345 347 346 345 344 342 342 343 343 343 344 345 345 346 347 348 348
306 305 304 304 305 304 304 303 304 303 303 305 310 314 320 325 327 325 323 324 329 332 332 330 328 327 325 327 331 331 329 329 328 328 327 327 326 326 326 325 324 325 325 326 326 326 327 327 326 324 324 325 327 325 320 322 323 322 321 320 317 319 321 328 334 338 339 341 343 342 341 346 349 346 347 346 344 344 343 343 343 344 345 344 345 347 348 348
305 304 303 303 303 304 304 304 305 303 304 307 311 317 322 323 324 326 324 325 329 332 331 329 329 327 323 324 326 328 331 329 327 328 328 327 326 325 325 324 325 327 327 327 326 326 326 326 323 322 322 325 326 325 326 327 328 327 325 322 321 320 321 331 338 339 340 338 339 344 343 347 350 348 348 346 345 345 344 345 343 343 345 344 345 346 348 349
304 304 303 302 302 304 304 304 305 305 307 310 314 319 322 317 317 318 317 318 320 321 321 321 324 325 326 328 329 330 331 329 328 328 327 326 325 324 324 325 327 328 328 327 326 327 327 323 321 323 325 325 326 326 326 326 327 328 325 322 321 321 323 332 338 339 341 338 337 345 345 345 348 347 347 347 345 345 345 346 344 344 345 344 345 346 348 349
305 304 302 302 302 302 304 305 305 308 310 313 317 319 319 316 316 316 316 315 316 315 316 316 316 318 321 324 327 329 328 328 328 327 327 327 326 325 325 325 326 328 329 328 328 327 323 321 323 325 326 325 325 326 326 326 327 326 325 321 318 321 325 330 337 340 339 338 339 345 343 344 348 347 349 347 346 348 346 347 346 345 346 346 345 346 347 348
305 303 302 302 302 302 304 305 306 310 310 311 314 315 314 315 316 314 315 315 314 315 315 315 315 315 316 317 319 321 322 324 325 327 328 327 327 326 325 324 325 328 328 327 327 323 318 320 325 325 325 326 325 325 326 326 326 326 325 319 316 322 323 320 330 340 340 338 341 344 342 344 348 348 349 347 346 348 347 347 347 347 347 346 344 345 347 348
304 303 302 303 302 302 303 305 309 310 307 309 312 313 313 314 314 314 314 313 314 315 315 315 316 315 315 316 317 318 319 321 323 325 327 326 326 325 325 325 325 326 328 328 327 324 321 323 324 325 325 326 324 324 325 322 321 324 325 320 317 324 324 322 331 339 338 337 342 342 333 336 348 350 349 348 348 348 347 348 348 348 349 347 345 345 347 348
303 303 303 303 303 302 303 306 311 308 306 310 313 314 314 313 314 314 313 314 315 316 316 316 316 316 317 317 318 318 318 320 321 324 326 326 326 325 326 325 326 326 327 327 328 326 326 325 325 325 324 324 323 323 324 321 316 318 325 326 323 326 328 328 332 333 327 326 338 338 323 327 345 349 351 350 351 351 349 350 349 351 351 347 347 347 347 348
303 303 303 303 303 303 303 307 309 308 309 313 313 314 314 314 315 314 314 316 317 319 319 318 318 319 319 317 318 318 318 318 321 323 325 327 326 325 325 325 326 327 326 327 327 326 326 327 325 324 324 324 323 322 323 323 316 312 321 327 328 329 328 327 327 325 319 320 335 338 327 326 335 342 352 352 351 352 351 351 351 354 354 348 348 348 348 348
303 303 303 303 303 303 305 307 307 309 312 313 313 313 313 315 314 313 317 318 319 323 322 319 320 320 319 320 318 318 316 317 321 322 324 326 326 325 324 325 326 325 328 327 322 324 328 328 326 325 325 323 321 320 322 324 316 313 323 329 328 329 327 327 323 320 322 327 333 334 333 328 326 336 351 351 349 351 350 352 353 353 355 350 349 349 349 349
303 303 303 303 303 303 305 307 308 311 312 311 312 312 313 316 314 313 319 320 324 324 323 320 321 320 319 321 319 318 319 320 321 321 322 325 324 324 323 323 325 325 328 326 318 323 329 328 327 327 325 322 321 321 323 325 319 319 327 328 328 329 328 329 324 319 324 325 322 326 329 326 325 337 350 350 348 349 350 353 355 356 355 352 350 350 349 349
304 304 303 304 303 303 305 307 308 311 310 308 309 311 313 314 313 315 320 323 325 320 324 323 321 322 319 320 319 318 321 321 321 321 322 323 323 323 323 323 324 325 326 326 323 325 328 327 329 327 326 323 323 325 324 324 322 323 327 327 328 329 328 329 326 320 320 320 318 322 324 323 324 332 342 343 341 346 351 351 354 358 357 354 352 351 350 349
304 304 303 304 304 304 306 306 307 308 308 308 310 312 313 312 314 317 319 324 322 319 324 323 322 324 320 320 319 319 320 320 323 323 321 322 322 322 323 323 324 324 326 327 326 327 327 327 330 328 327 326 326 326 325 324 324 324 325 326 325 325 328 330 328 323 316 316 320 322 323 324 323 327 335 340 341 346 353 351 351 354 355 355 353 350 351 350
304 304 304 304 304 305 306 307 307 307 308 308 311 314 312 313 316 316 320 323 318 321 326 323 324 324 321 321 320 319 320 320 323 323 321 322 322 321 322 323 323 322 322 323 324 327 327 327 329 329 329 329 327 326 326 326 325 324 325 323 317 317 321 320 320 321 316 314 320 323 324 322 320 326 337 344 348 348 350 351 351 351 352 354 354 350 350 351
304 304 304 304 304 306 307 308 304 305 307 310 314 316 314 315 316 314 319 319 316 322 325 325 326 324 323 322 321 321 320 320 322 322 322 321 320 321 321 322 322 318 314 316 319 323 325 326 327 327 329 330 328 324 324 325 325 324 322 317 313 311 313 313 313 316 316 315 318 322 322 318 320 333 343 345 348 348 348 350 350 350 350 351 353 352 351 352
304 304 304 304 306 308 308 307 305 306 309 313 316 315 313 317 317 314 315 316 317 322 323 325 326 325 325 322 322 323 321 322 323 322 323 322 321 321 321 323 324 320 315 316 316 315 320 326 327 327 327 329 329 323 318 319 322 321 316 312 312 312 312 313 314 314 316 317 319 320 321 315 317 332 346 346 345 346 348 349 348 349 349 350 351 351 350 350
304 304 304 305 306 308 308 308 309 310 313 315 316 316 314 316 318 315 314 316 317 320 321 322 323 324 326 324 324 324 322 322 323 323 324 323 321 320 320 322 324 324 322 318 315 314 314 319 325 326 326 328 330 327 322 323 322 322 322 318 314 312 312 313 314 313 315 317 318 318 318 313 315 331 347 345 343 345 346 346 348 348 348 349 349 350 349 349
304 305 306 307 308 308 309 310 311 312 314 315 315 317 316 315 315 314 315 317 318 320 320 321 322 321 322 325 326 326 324 323 323 323 324 324 322 321 321 322 323 325 322 316 316 317 312 315 326 328 327 328 329 329 330 327 320 322 325 318 312 315 317 314 315 315 313 316 316 314 317 321 328 342 348 342 342 345 345 345 348 348 348 347 348 350 350 348
305 306 308 309 310 310 311 312 313 314 315 314 316 318 317 314 314 314 317 319 319 320 318 318 321 318 316 320 325 328 327 325 325 323 323 326 325 324 325 324 323 325 322 319 318 317 312 314 326 329 326 329 329 328 330 325 318 321 319 313 315 324 323 313 312 314 312 314 315 313 316 323 329 336 339 344 344 344 347 347 346 349 350 347 349 350 350 350
306 308 309 311 311 310 311 313 314 316 315 314 317 319 317 314 314 314 316 317 317 318 316 314 316 315 313 315 320 325 327 325 325 321 319 323 324 324 326 325 325 325 324 323 321 321 316 314 325 329 325 327 329 328 330 327 324 319 313 315 322 325 323 316 312 312 313 314 314 312 313 317 319 327 337 344 344 343 347 347 346 351 352 349 351 351 351 353
307 309 310 312 311 311 313 314 315 316 316 316 317 319 318 316 316 315 315 316 316 318 317 314 316 316 314 313 316 324 326 322 322 322 320 320 322 324 327 326 325 326 325 324 322 324 322 313 320 329 327 327 329 327 325 326 327 323 318 323 323 314 313 313 311 311 313 313 313 314 314 315 316 324 334 339 342 344 346 346 347 352 353 351 351 353 353 354
308 309 311 310 309 311 313 314 316 316 317 318 318 318 317 316 316 316 316 317 316 317 317 316 317 317 316 315 316 321 323 321 322 322 319 320 322 324 328 327 326 327 325 325 324 325 325 317 315 326 328 327 327 324 318 319 325 325 323 325 323 315 313 312 311 312 313 314 314 315 315 315 323 332 336 341 345 344 346 347 347 349 353 352 350 352 353 353
308 308 309 307 308 311 310 312 316 317 317 319 318 317 317 316 317 317 316 317 317 317 317 317 318 316 317 318 317 318 320 321 323 323 320 323 323 324 328 328 326 327 326 325 324 323 326 321 314 322 328 324 321 322 321 320 322 320 318 317 317 318 317 315 314 312 312 313 315 318 315 315 331 345 340 344 347 343 345 347 345 347 350 351 351 350 351 352
307 307 308 307 309 309 308 310 314 317 317 317 317 316 316 316 316 316 316 317 317 317 317 317 318 317 317 317 317 317 318 318 321 323 323 324 322 322 327 327 327 327 326 325 326 323 323 322 316 316 318 316 319 327 328 326 325 322 318 317 316 317 314 312 313 313 310 310 313 319 317 318 338 345 337 346 350 343 344 346 345 347 347 348 350 348 350 352
306 307 308 307 308 308 308 309 311 315 316 316 315 314 315 316 315 314 315 315 316 317 318 318 318 319 318 317 317 317 317 316 317 319 322 325 325 324 327 328 328 328 326 325 325 325 326 324 317 313 316 320 326 330 328 326 328 326 324 323 322 320 314 308 311 314 311 309 312 316 315 323 344 346 341 354 355 343 346 350 347 346 345 347 350 348 348 351
306 307 307 307 307 307 309 310 310 312 314 315 315 314 314 314 314 314 314 314 315 316 316 318 318 319 319 318 318 318 317 316 315 317 319 324 326 326 326 328 327 327 330 326 325 329 330 325 317 314 320 326 328 329 328 328 328 324 323 326 324 321 317 314 319 321 314 309 311 313 312 320 337 344 348 362 361 345 345 349 346 345 345 347 350 350 350 350
305 306 306 307 307 308 309 310 311 312 313 314 313 313 312 312 311 312 312 313 314 314 315 317 317 318 319 319 319 319 317 316 316 317 318 320 322 324 325 327 327 327 328 328 327 327 325 322 320 316 317 319 321 325 325 324 325 324 324 326 324 324 323 319 319 321 316 312 312 313 313 321 337 340 339 352 355 345 344 347 344 345 345 345 349 353 354 353
305 306 306 307 308 308 310 310 310 310 311 311 310 309 309 310 310 310 311 312 313 314 315 316 316 317 319 318 319 320 319 317 316 317 319 319 319 321 322 324 327 326 327 335 338 328 323 326 322 315 314 315 315 318 320 321 322 323 326 326 325 324 322 318 314 311 316 321 318 313 315 328 345 337 329 337 341 341 349 348 342 345 344 342 350 355 356 356
305 306 306 306 307 308 309 309 309 310 311 310 311 310 310 311 311 311 313 314 314 314 314 315 316 316 317 318 318 319 322 322 319 317 318 318 318 319 321 322 323 324 334 350 348 331 327 329 325 320 317 318 319 323 329 329 321 318 322 324 325 327 324 321 314 309 315 323 320 321 325 326 333 337 331 330 331 339 353 349 344 352 350 343 354 359 355 355
306 306 306 307 308 308 308 308 309 310 311 310 311 312 310 311 312 312 313 313 314 314 313 314 315 315 314 315 317 319 320 321 321 321 322 321 321 322 321 321 321 323 339 352 345 338 334 326 325 326 323 324 330 332 333 331 322 318 321 321 323 327 324 319 313 313 318 316 313 329 338 323 327 341 339 337 336 338 351 354 357 372 366 352 358 361 353 353
306 306 305 306 307 308 307 308 308 308 309 309 310 311 310 310 311 312 313 313 313 313 313 313 314 313 313 313 315 318 319 319 320 320 319 319 319 320 321 322 322 324 333 336 334 342 340 326 325 327 323 325 330 330 330 331 327 324 324 322 323 325 323 319 317 320 325 317 312 329 342 334 340 349 345 350 353 344 347 357 363 374 373 363 362 360 353 353
305 305 305 306 307 307 307 307 307 308 308 309 310 310 309 310 310 311 311 312 311 311 312 313 313 312 313 312 313 315 316 318 318 316 316 317 317 318 320 322 323 323 326 329 331 337 335 330 332 328 322 324 327 328 329 327 325 325 325 324 325 326 324 322 322 324 327 324 323 332 342 346 350 345 338 349 362 356 352 352 353 360 367 370 369 362 356 356
305 305 306 306 306 307 306 306 307 308 308 309 310 310 309 309 310 311 311 310 310 311 312 312 312 312 312 312 312 313 313 314 314 313 313 315 316 318 320 320 322 322 321 324 331 332 329 331 337 329 321 322 325 327 328 325 323 322 323 327 326 324 324 323 324 325 324 325 329 330 333 341 347 345 342 344 352 352 349 345 348 357 363 370 372 367 365 365
305 305 305 306 307 307 306 306 307 308 308 308 309 309 309 309 309 310 310 309 309 311 312 312 312 312 312 312 311 311 312 312 312 311 312 314 316 317 319 319 320 321 322 323 327 331 331 332 335 329 321 321 325 326 325 325 325 319 318 325 325 322 323 321 323 326 324 325 328 325 323 332 344 345 340 338 339 341 345 351 353 353 354 360 366 370 376 376
305 305 305 305 307 307 306 307 307 307 309 309 309 309 308 308 308 308 310 310 309 311 312 312 312 312 312 312 312 311 310 310 310 310 311 314 315 316 318 319 320 320 324 325 325 330 333 332 331 329 322 320 326 327 325 321 318 315 318 325 327 328 329 326 326 327 327 325 325 324 329 344 354 348 339 338 336 333 342 354 357 355 358 361 361 363 369 373
Wind_Speed
23 23 23 22 22 24 25 25 25 25 24 24 24 25 24 24 25 25 25 25 25 25 26 26 26 27 27 27 26 25 26 24 25 20 16 24 28 23 20 18 10 11 16 14 14 14 13 13 15 18 13 10 7 6 9 8 5 3 2 2 2 3 2 1 4 5 3 3 3 7 8 9 8 9 8 9 12 15 14 12 14 15 16 20 23 31 33 32
23 23 23 22 24 27 27 26 26 26 26 26 25 26 25 25 25 26 26 26 26 26 26 27 26 27 27 27 25 23 23 21 21 19 24 28 28 25 21 21 16 11 16 17 17 16 13 12 14 15 10 6 6 8 8 8 7 4 3 3 3 4 5 6 7 6 4 8 5 8 9 9 9 9 7 8 13 14 13 14 17 18 19 22 26 31 32 32
24 24 23 24 27 28 27 26 26 26 26 27 27 26 26 26 26 27 27 27 27 27 27 27 26 26 26 26 23 19 17 15 11 14 20 15 13 22 22 24 23 17 17 19 19 18 16 15 16 13 9 7 7 9 9 8 8 5 5 3 6 7 6 8 9 9 7 6 6 6 10 9 9 7 7 9 12 12 11 14 17 19 21 22 23 26 30 30
24 24 24 27 29 28 28 28 27 28 28 28 28 28 27 27 28 28 28 28 28 28 27 26 26 26 25 24 20 16 11 8 5 6 9 3 8 15 18 21 22 20 19 20 18 19 20 18 16 14 10 8 8 9 9 8 6 5 6 5 7 6 5 6 8 9 5 4 6 4 9 9 9 7 8 12 10 9 11 16 19 21 23 22 21 23 26 26
25 24 25 29 30 29 29 29 29 29 29 29 29 29 29 29 29 29 28 28 28 28 27 26 26 25 24 22 16 10 6 4 1 2 2 3 8 12 14 15 17 19 19 18 17 18 20 16 13 12 9 7 8 8 9 11 8 5 7 8 9 6 4 5 8 9 3 10 6 5 7 7 8 6 9 13 9 7 12 19 22 22 22 22 22 21 22 22
26 25 27 30 30 30 30 30 30 30 30 30 31 31 30 30 30 30 29 29 29 28 26 25 25 25 24 19 10 2 1 2 5 1 6 8 10 13 13 11 12 15 17 17 15 14 15 14 12 9 7 6 8 9 10 12 9 5 6 11 13 10 6 7 11 11 7 10 5 4 5 7 6 5 9 13 10 10 17 22 23 21 22 24 23 20 20 20
28 28 29 30 30 30 31 31 32 32 32 32 32 32 32 32 31 31 30 30 29 27 25 24 25 25 22 14 3 2 2 7 19 16 9 9 12 13 11 11 12 14 16 15 12 11 11 12 13 8 7 7 9 11 12 12 10 6 6 12 14 13 11 9 10 12 10 11 6 4 4 8 7 5 6 6 9 19 22 23 23 21 22 23 20 19 19 19
30 30 30 31 31 31 32 33 33 33 33 33 33 33 33 33 33 32 31 31 29 26 24 24 24 22 17 8 0 3 4 13 24 20 17 18 14 11 11 12 13 15 17 16 13 11 10 12 12 9 8 8 8 11 12 12 11 10 8 12 14 13 11 8 8 10 14 11 8 8 5 6 7 5 6 8 16 22 22 22 22 21 21 20 18 19 18 17
31 31 32 32 32 33 33 34 34 34 34 34 35 35 35 34 34 33 32 31 28 25 23 23 22 17 10 4 3 3 8 18 20 16 21 26 19 14 14 13 15 17 16 18 16 13 10 10 11 10 8 9 10 11 11 9 7 9 9 11 14 12 10 10 10 10 14 12 10 10 6 5 5 5 5 12 19 21 22 22 22 21 20 18 17 17 16 16
31 32 33 34 33 34 35 36 36 36 35 35 36 36 36 35 34 34 33 31 26 24 22 20 18 11 4 2 3 3 12 18 14 14 20 24 21 16 18 15 16 19 13 14 15 14 11 10 10 9 8 8 9 10 11 10 6 9 9 8 10 11 10 12 10 9 10 13 14 10 7 7 7 4 4 12 19 21 23 21 20 19 18 18 16 15 15 16
30 32 35 35 35 36 36 37 37 37 36 37 37 36 36 35 35 34 33 30 26 23 21 18 14 6 2 3 3 5 12 14 8 14 16 20 18 14 17 16 17 18 14 11 13 16 16 15 12 6 6 6 8 10 10 11 10 12 12 10 9 8 11 13 10 9 7 11 14 10 8 8 8 6 5 14 19 20 21 20 19 17 15 17 17 14 13 13
28 32 36 36 36 37 37 38 38 38 38 38 38 38 37 36 35 34 31 29 26 22 17 14 8 1 2 3 8 16 18 17 15 12 12 19 20 14 13 15 19 20 15 11 12 19 21 20 16 9 5 4 6 7 7 9 10 13 13 10 11 12 9 12 12 9 6 10 14 11 8 7 7 7 9 16 18 19 21 20 18 16 14 14 14 13 11 11
29 34 37 37 38 38 38 39 39 39 39 39 39 39 38 36 35 32 30 29 26 19 12 10 5 4 2 3 12 25 27 24 23 22 18 17 18 16 12 15 20 22 21 16 14 19 24 23 17 10 8 5 5 5 6 8 8 10 11 7 8 10 7 9 11 9 7 10 15 11 5 6 7 8 12 15 16 20 19 17 16 14 14 12 12 12 12 12
32 37 39 38 39 40 40 40 40 40 40 41 40 40 38 36 33 30 30 28 21 12 8 8 4 6 3 7 15 26 29 27 24 24 22 19 18 16 15 15 16 18 20 19 18 18 20 22 16 9 8 7 6 7 9 8 6 8 8 5 5 5 5 7 10 10 8 10 16 12 4 6 8 9 14 14 15 20 17 16 16 13 13 12 11 12 13 12
36 39 39 40 40 40 41 41 41 41 41 42 42 41 38 34 31 29 28 22 13 7 7 4 7 6 3 9 18 25 24 24 26 31 28 22 22 15 17 19 17 18 18 16 17 17 18 17 12 7 6 7 7 7 7 5 5 5 6 5 4 4 6 8 9 13 9 10 16 13 4 6 7 7 14 14 12 18 17 16 16 14 15 12 11 13 12 11
38 39 40 41 40 41 42 41 41 42 42 42 42 39 35 33 31 27 23 15 8 7 7 3 10 9 4 6 11 18 13 14 22 31 31 28 25 16 16 18 17 19 19 18 17 15 17 13 7 6 6 6 7 6 4 4 5 5 5 5 4 5 6 8 7 13 11 9 13 11 4 5 7 6 13 15 12 17 17 16 17 15 15 13 11 12 12 10
38 40 41 41 40 41 42 42 42 42 42 43 41 37 34 31 24 18 11 5 4 9 10 4 6 7 7 10 10 13 11 15 18 20 25 29 26 18 14 12 11 15 16 17 17 13 11 8 4 4 5 6 5 5 4 5 5 5 4 5 7 7 8 7 5 10 11 10 10 10 6 5 9 9 12 15 13 15 16 16 17 15 14 12 11 12 12 11
38 40 42 41 40 42 42 43 42 41 43 42 37 36 32 22 10 3 2 6 6 5 8 7 4 3 7 10 6 8 13 16 16 17 21 26 25 21 15 10 8 11 11 10 12 10 7 5 4 4 4 5 5 6 6 7 7 7 6 5 7 9 8 8 5 7 10 11 10 10 7 6 11 12 11 15 14 12 14 15 15 15 14 13 12 12 12 11
38 40 42 42 41 42 43 43 41 41 43 38 33 31 19 8 4 4 6 7 5 2 4 4 6 4 5 6 8 12 14 15 16 16 16 20 22 20 16 12 10 10 9 6 7 9 6 4 5 6 6 7 8 9 9 9 10 11 11 8 8 7 8 9 6 9 10 9 10 11 8 6 9 10 9 13 15 12 13 14 13 13 14 14 12 12 12 13
39 41 42 42 42 42 43 43 40 39 40 37 33 24 9 4 5 1 3 4 6 8 10 8 9 10 11 10 12 18 17 12 12 11 13 15 16 13 11 10 10 9 8 6 7 8 6 5 7 8 9 10 11 13 13 12 12 14 13 10 9 8 8 10 6 10 11 7 7 10 10 9 9 9 8 10 13 12 12 14 13 13 14 14 13 13 14 14
41 41 41 43 43 42 43 42 40 36 33 30 24 12 5 6 5 4 6 7 11 12 16 18 15 16 17 15 18 20 12 5 5 8 15 17 15 10 7 8 9 7 7 8 7 7 7 8 10 11 11 12 12 13 14 13 13 14 12 10 8 7 8 10 8 11 13 8 7 9 10 9 9 10 9 9 11 11 12 13 13 14 15 14 14 15 15 12
40 39 43 44 43 44 42 41 39 30 23 20 14 5 6 9 7 10 11 9 13 13 16 20 19 20 20 21 30 25 12 9 10 9 15 18 12 8 8 9 8 6 8 9 7 6 8 10 12 12 11 12 12 11 13 14 14 12 10 9 8 7 7 9 9 13 14 8 6 10 9 8 10 10 9 11 11 8 11 13 13 14 15 15 15 14 14 13
39 40 43 42 44 45 40 41 35 21 19 20 14 11 12 14 15 17 11 8 14 12 14 19 19 19 19 20 28 25 14 12 11 10 15 16 10 9 9 9 9 8 8 11 9 7 7 9 11 12 10 12 14 13 13 13 12 10 9 8 8 9 8 6 7 11 12 9 8 10 8 6 8 9 9 12 13 9 10 13 13 14 14 15 17 14 15 16
40 42 43 42 46 43 41 41 25 16 27 27 18 14 16 19 19 20 10 5 12 10 13 20 17 16 22 21 19 18 14 11 11 11 15 16 9 9 9 9 10 9 9 12 14 12 9 8 12 14 13 14 14 14 14 10 9 12 13 10 8 11 12 10 6 8 8 8 10 9 5 4 7 9 8 8 11 11 10 12 13 14 14 14 16 15 15 17
41 42 42 43 44 44 44 31 14 23 36 24 14 19 22 21 21 20 10 3 8 7 10 16 11 13 24 22 15 14 11 12 13 12 12 16 12 8 8 8 7 9 12 14 14 12 12 10 11 16 16 16 14 13 15 12 7 9 13 15 14 13 13 14 11 6 5 5 9 10 4 5 6 12 11 7 8 9 9 11 13 13 13 14 14 14 14 15
42 42 42 43 42 47 39 15 14 34 30 12 15 26 24 22 24 21 9 2 6 6 7 9 7 9 16 15 13 11 8 12 15 15 14 16 17 10 6 6 4 8 12 12 10 6 9 12 13 15 16 17 16 12 14 14 8 7 10 16 19 18 15 16 14 7 4 5 9 13 7 3 5 10 13 12 11 12 10 11 12 11 11 14 13 13 14 14
42 41 42 42 41 44 27 11 24 30 14 10 20 28 26 23 26 20 4 1 5 5 6 5 5 6 10 13 15 12 6 6 11 15 17 16 16 11 8 8 6 8 8 7 7 5 8 14 15 16 15 14 13 11 12 13 10 7 9 13 17 19 18 18 16 9 4 4 9 13 10 4 4 7 13 16 14 14 13 12 12 11 11 13 14 15 16 15
41 41 41 40 41 39 22 17 25 17 9 16 25 27 26 24 23 14 1 1 5 1 4 3 3 3 6 12 18 13 5 5 9 14 19 20 16 11 10 11 9 10 10 7 7 7 9 13 15 16 15 10 10 11 12 13 11 8 10 11 12 15 18 17 14 9 5 4 5 10 10 5 4 5 10 16 15 15 16 14 12 12 13 14 14 15 16 16
41 41 40 40 42 35 20 16 20 18 19 24 26 27 25 23 16 4 1 3 4 2 1 3 2 3 5 12 18 15 8 5 6 10 17 20 17 11 9 12 11 10 13 12 9 7 9 11 14 15 13 9 9 11 14 14 11 8 10 11 10 12 14 14 11 8 6 5 5 9 12 6 4 6 8 11 12 14 16 15 13 12 13 14 13 14 15 15
42 41 40 41 41 35 26 24 24 20 22 24 24 26 22 16 6 2 4 4 3 1 2 2 1 4 7 11 14 14 13 11 6 8 14 15 17 14 8 9 11 9 9 13 12 11 11 10 11 12 10 10 9 11 13 14 12 9 10 10 10 10 8 7 7 5 5 5 5 11 16 11 5 6 9 10 12 14 14 12 12 12 12 12 12 12 14 14
42 42 41 40 40 35 22 19 21 18 18 21 22 21 15 6 2 3 5 3 3 3 3 2 4 8 11 12 12 13 15 13 8 7 10 11 13 13 8 7 8 7 7 9 10 13 15 13 9 8 8 10 10 10 11 13 12 9 7 7 7 7 5 5 3 4 6 6 5 9 14 14 7 6 9 11 12 16 15 14 15 15 14 12 12 13 13 14
41 42 43 40 37 30 18 19 25 24 20 20 18 12 5 2 4 7 4 0 3 6 6 6 8 10 12 14 11 12 14 11 10 9 8 10 10 11 12 9 7 8 8 7 8 10 12 13 11 9 9 11 10 7 7 9 11 10 7 5 6 5 4 5 4 4 5 6 7 8 10 10 7 5 11 14 14 16 17 17 18 19 18 15 13 14 13 12
42 43 42 37 32 28 27 28 29 25 20 18 12 5 1 4 6 7 6 4 4 3 3 4 7 8 12 12 9 11 12 10 11 11 10 13 10 11 15 14 10 9 7 7 7 7 7 11 14 12 8 10 12 6 4 6 8 9 8 6 6 5 5 6 5 4 4 5 8 10 9 7 5 5 13 17 16 17 18 20 21 21 21 20 17 16 14 13
44 42 39 36 32 30 29 26 24 22 18 13 7 2 5 8 4 6 9 8 8 13 13 9 8 8 10 11 10 10 10 10 12 12 11 12 11 10 13 16 16 10 5 6 7 7 8 7 11 14 7 9 14 11 6 5 6 8 7 6 5 5 5 6 4 4 4 4 6 9 7 5 4 6 13 18 18 18 17 18 20 21 21 20 18 16 16 16
41 40 39 37 33 30 23 18 19 19 13 7 4 4 9 8 1 2 5 6 8 11 15 17 14 12 10 9 13 14 10 9 13 13 11 11 11 9 11 14 18 14 7 7 5 7 11 8 8 14 11 9 12 12 9 7 6 6 5 6 8 7 5 4 4 4 3 3 5 6 5 4 5 7 10 14 17 17 16 16 17 18 20 18 15 16 16 16
41 40 37 34 29 26 21 17 17 17 12 5 5 8 8 5 3 4 3 4 7 7 12 16 12 9 9 6 9 15 14 10 13 13 10 11 12 12 11 11 16 17 12 7 4 5 8 7 8 14 16 15 11 12 13 11 5 5 7 10 8 7 5 2 3 3 2 5 6 4 4 3 3 6 7 8 13 15 14 16 16 16 20 20 16 16 16 15
37 31 29 34 29 22 20 19 16 17 11 4 8 9 5 5 8 8 7 10 13 12 11 10 8 7 7 6 7 12 15 11 12 11 8 10 11 13 14 11 16 21 17 10 5 5 6 4 9 14 16 18 14 11 15 14 8 5 6 8 4 3 3 2 2 3 4 5 5 6 9 6 3 5 7 8 13 15 14 15 14 15 20 21 17 16 16 15
31 21 21 31 25 21 19 16 15 13 8 6 11 11 8 7 10 11 12 14 16 14 10 7 6 8 8 7 7 9 12 11 11 10 9 9 8 13 17 12 14 20 22 17 8 5 6 4 7 13 15 16 15 11 12 13 12 9 5 3 4 4 6 4 3 4 5 5 4 6 9 8 5 5 7 10 14 17 16 15 14 16 20 20 18 17 17 16
25 13 11 20 18 25 23 9 14 9 6 8 10 8 8 9 12 14 15 16 15 12 10 7 6 8 10 10 10 10 10 9 11 10 8 8 7 14 18 13 13 18 22 21 12 5 6 4 4 10 12 14 12 9 8 8 10 10 7 5 4 4 6 6 5 4 4 4 4 5 6 5 5 6 7 10 12 15 16 15 15 16 19 19 18 18 17 16
15 5 9 18 17 28 34 15 9 8 6 10 10 7 8 10 11 14 15 16 12 9 9 9 8 9 11 13 13 11 11 10 10 11 9 8 9 13 18 15 13 15 20 22 16 8 6 5 4 6 7 11 10 8 9 8 9 9 8 9 8 4 3 5 5 5 5 3 3 5 5 6 5 6 9 10 10 13 15 16 15 16 19 19 19 19 17 16
11 4 11 22 25 31 31 16 6 7 7 10 11 10 12 11 12 15 16 17 13 9 11 13 12 12 11 12 14 10 9 12 11 9 9 11 10 8 14 17 15 14 16 18 17 10 6 5 4 5 6 7 8 10 14 13 12 11 9 10 10 6 4 4 5 6 7 6 5 4 4 6 5 6 9 9 9 12 14 15 13 13 18 19 19 20 18 16
9 5 13 29 37 32 18 6 5 6 7 9 11 12 12 11 13 14 15 17 15 12 12 13 14 14 12 12 13 13 10 10 12 10 7 10 13 9 10 16 19 17 13 11 14 13 8 5 5 6 7 7 7 13 19 19 16 13 11 11 9 6 6 6 5 5 6 6 6 4 3 6 6 7 8 7 8 12 12 13 12 12 15 16 17 20 19 18
6 8 19 35 38 25 10 6 6 6 7 10 14 15 14 13 13 12 13 14 12 11 11 11 13 13 12 11 13 14 12 10 13 14 11 10 10 11 13 15 17 19 15 9 11 14 9 5 6 6 6 9 10 8 16 21 17 12 11 11 9 8 8 7 5 4 5 5 5 4 4 5 5 7 6 4 5 11 11 13 15 12 11 12 14 18 19 18
6 8 16 29 31 16 6 6 6 6 8 11 14 15 14 13 13 14 15 14 12 11 10 11 13 13 13 13 13 15 14 11 12 14 13 11 8 8 13 17 16 14 13 9 7 10 9 7 6 5 4 6 8 7 8 15 15 9 8 11 12 12 11 9 6 4 4 7 9 6 5 6 4 8 11 7 2 5 8 11 14 12 11 11 11 13 16 16
7 6 7 17 22 12 6 6 7 8 10 12 15 16 15 13 13 15 14 14 14 11 8 9 12 13 13 13 13 16 15 12 12 12 12 11 10 12 12 15 18 13 11 14 13 10 9 8 8 7 8 8 9 6 4 8 10 8 8 12 14 15 15 10 6 6 6 7 8 7 5 6 5 11 17 16 9 5 5 9 12 12 14 13 10 12 15 15
5 6 5 8 10 7 5 7 7 6 8 10 11 12 14 12 10 11 12 12 12 11 9 9 11 13 12 13 13 12 12 13 14 14 12 11 9 9 16 18 13 13 14 17 16 10 6 8 11 13 11 8 8 7 5 5 8 10 12 14 14 14 15 11 6 7 7 4 5 6 6 6 6 11 16 18 14 10 6 8 10 9 11 13 10 10 15 16
3 4 6 5 5 6 6 7 7 6 7 9 6 8 13 13 11 12 11 10 10 11 10 7 8 12 14 16 14 10 13 17 16 13 11 11 13 13 21 24 16 18 23 15 13 9 5 7 13 18 16 13 9 8 10 10 9 13 15 16 16 15 14 12 10 10 7 5 6 8 6 8 9 9 12 14 13 10 7 7 9 7 8 11 10 11 14 16
3 4 6 6 5 6 7 9 12 12 13 12 7 9 15 14 11 11 10 9 10 10 8 6 8 12 13 15 12 11 15 15 12 15 14 13 17 16 17 18 14 17 23 14 11 7 3 5 11 16 18 18 14 12 14 13 10 11 15 16 17 18 17 14 12 11 8 7 8 8 6 8 8 7 8 9 8 8 7 7 7 8 9 7 7 11 15 15
4 5 5 4 4 7 9 13 16 16 15 12 8 8 13 15 14 12 9 9 11 8 5 8 10 11 11 12 10 9 12 11 11 14 15 16 17 13 12 16 14 16 18 12 8 5 4 3 6 10 14 17 18 18 17 16 12 10 13 16 18 19 20 17 13 10 10 9 10 9 9 9 8 6 7 7 7 5 2 1 0 4 10 10 8 9 11 13
4 4 4 3 4 7 9 11 12 12 11 10 8 7 10 13 15 15 10 8 12 9 3 6 12 12 11 11 9 8 11 12 13 15 16 17 15 9 7 8 9 14 18 15 8 3 6 4 4 5 6 10 17 20 20 18 16 13 11 13 16 18 19 18 15 12 10 9 10 11 10 8 7 7 6 5 5 5 3 2 1 2 6 10 10 11 10 9
8 6 5 4 5 6 7 8 8 8 8 7 6 6 9 11 14 17 12 9 13 11 1 2 9 10 9 10 9 11 15 16 16 18 18 16 13 10 9 8 10 14 15 14 12 4 6 5 3 2 1 3 8 15 21 19 16 17 16 14 13 14 14 15 16 14 11 8 7 9 9 7 6 6 5 6 4 1 3 6 5 2 4 7 9 12 13 12
9 5 2 2 4 5 6 7 8 7 6 5 6 7 9 11 13 16 12 6 10 11 3 4 6 6 6 9 10 11 15 18 19 18 17 17 17 15 15 17 16 15 12 11 12 8 3 5 5 4 1 2 4 8 14 16 14 16 15 13 11 8 6 7 11 14 14 12 7 6 7 6 6 7 7 7 8 7 6 7 7 6 6 7 8 10 12 15
Wind_Direction
353 352 352 351 352 357 359 358 356 354 352 349 346 343 341 339 337 335 334 332 330 328 327 325 325 325 323 325 331 329 323 317 313 302 263 264 267 260 257 260 267 220 201 198 196 179 183 206 215 216 224 227 223 234 235 232 204 141 114 181 229 251 231 244 272 270 306 308 192 158 133 116 121 128 125 138 136 135 147 147 138 133 129 134 139 140 142 145
353 352 351 351 357 359 358 356 355 352 350 346 344 342 339 338 336 334 333 331 330 327 326 325 323 323 324 326 332 332 327 319 308 283 270 280 270 254 244 241 252 228 194 194 198 192 189 200 210 211 214 226 225 225 229 228 217 176 138 175 206 227 191 181 231 247 251 280 250 153 137 133 141 141 151 152 139 148 152 138 132 129 127 133 140 144 147 150
352 352 351 353 357 356 354 353 351 349 347 344 342 340 339 337 335 334 332 330 328 326 326 324 322 323 323 327 334 335 328 318 298 269 285 301 253 237 232 234 239 226 206 201 201 204 206 202 203 207 213 225 228 230 225 220 222 180 144 181 222 224 206 192 209 235 230 260 277 170 142 137 145 157 166 148 145 160 144 129 131 130 134 140 144 147 152 150
351 351 352 355 356 353 352 350 348 347 344 343 341 340 338 336 335 333 331 330 327 326 324 322 323 321 322 330 334 336 329 304 270 256 302 342 183 206 214 225 224 218 220 213 210 216 220 214 204 204 211 222 228 239 239 224 216 170 158 187 224 210 199 210 211 246 218 138 273 232 134 138 154 172 164 149 158 163 137 134 138 139 144 146 145 151 154 148
350 349 352 354 354 351 350 347 346 344 342 342 340 339 337 335 334 332 330 329 327 325 323 322 322 320 323 330 333 339 341 304 296 113 84 109 154 174 193 210 211 215 218 213 220 231 235 231 217 210 210 225 229 234 243 234 220 189 175 183 211 199 177 207 207 242 166 128 243 242 139 140 146 172 164 156 171 162 140 139 140 144 147 148 149 153 155 149
349 349 351 352 351 349 347 346 345 342 341 340 339 338 335 334 332 331 330 327 326 324 322 322 321 320 321 329 340 340 321 281 300 299 139 140 145 160 176 185 198 211 208 208 224 237 243 238 229 223 213 221 233 245 255 243 228 207 179 188 203 195 185 193 195 217 172 138 218 242 139 133 145 194 172 170 177 141 136 139 140 146 147 150 152 154 157 155
351 351 351 350 349 348 346 345 343 341 340 338 337 335 333 333 331 329 328 326 325 321 322 322 319 319 320 335 21 186 204 250 270 268 221 185 165 167 178 177 185 193 194 202 218 230 239 235 225 225 228 218 224 243 258 262 258 252 199 198 203 196 198 196 194 197 159 140 185 214 156 152 177 191 152 163 146 128 132 137 140 145 148 152 155 158 160 158
351 351 349 349 348 347 345 343 342 340 338 336 335 333 332 331 329 327 326 325 323 320 322 320 317 318 324 349 11 253 236 247 269 268 237 219 195 185 188 183 187 183 188 201 210 219 231 238 224 214 233 231 229 232 242 256 259 260 227 199 202 204 201 192 207 190 149 142 184 197 175 171 177 145 119 112 117 126 131 134 140 146 150 154 160 161 159 160
349 349 349 348 347 345 344 342 340 338 336 334 332 331 329 328 326 325 324 323 320 318 320 316 315 317 331 350 278 284 245 254 275 265 231 219 210 206 197 191 191 183 189 205 212 222 226 238 227 214 228 240 247 246 247 249 239 251 235 198 198 199 192 189 211 199 154 151 184 184 163 166 152 131 136 123 122 127 129 135 143 148 153 157 164 164 160 163
347 349 348 347 346 344 342 341 339 336 335 333 330 328 326 325 324 323 322 321 317 316 317 312 310 312 327 283 250 258 264 271 262 222 211 207 204 203 198 198 195 187 195 207 211 225 228 237 235 220 233 250 256 256 258 258 264 270 261 234 210 193 193 193 198 207 171 156 169 168 157 153 139 151 161 128 126 127 130 139 145 150 156 159 167 167 162 167
345 347 347 346 344 343 341 339 337 335 334 331 328 325 323 322 322 322 321 318 314 314 312 304 300 300 272 257 237 237 268 288 242 192 189 189 187 194 204 206 200 194 199 208 212 223 232 245 251 238 221 235 259 266 269 269 286 290 286 290 271 238 211 188 178 213 192 152 158 156 159 152 145 183 165 128 130 132 136 142 148 155 157 162 170 165 163 174
343 344 347 346 344 342 340 338 337 335 333 330 327 323 320 320 319 320 320 315 312 311 305 292 284 226 260 259 230 240 260 289 283 261 227 193 178 183 207 210 204 199 203 215 218 218 228 242 250 256 237 215 241 264 283 273 282 288 287 296 291 287 246 181 169 206 197 154 159 149 153 161 165 189 151 133 137 138 140 145 153 157 157 165 169 160 166 180
342 344 346 345 344 341 339 338 336 334 332 329 326 322 319 318 317 318 318 312 309 308 292 272 248 165 238 246 238 255 269 281 285 287 270 227 200 189 202 221 211 201 203 215 226 220 223 232 243 255 257 252 244 265 293 270 260 267 270 268 273 292 269 192 168 194 209 170 158 142 150 176 189 191 150 141 144 140 143 150 155 156 158 169 166 158 172 183
342 345 346 345 343 341 339 337 335 333 331 329 325 320 318 316 315 316 314 307 307 302 263 245 189 151 217 255 266 276 276 270 268 272 269 256 241 210 195 223 230 219 213 217 232 236 231 230 237 252 255 256 266 282 287 272 254 256 265 262 245 261 265 219 173 183 203 170 151 138 150 175 193 191 149 146 150 143 146 152 156 159 161 169 165 161 173 186
345 346 346 344 342 340 339 336 334 332 331 330 325 319 316 314 313 313 307 301 302 269 234 226 179 173 270 265 276 291 283 261 251 249 247 247 251 229 192 205 225 237 237 234 239 250 254 240 228 236 245 251 263 271 275 281 281 264 260 267 244 230 269 261 195 183 184 161 151 143 161 173 185 186 146 152 158 145 149 153 157 162 162 168 165 163 172 185
346 346 345 343 341 340 338 336 334 332 332 330 324 319 315 313 311 306 297 290 282 217 187 182 193 196 288 267 279 301 280 234 237 239 234 235 244 233 201 202 213 226 232 237 240 244 255 253 232 227 226 232 240 243 262 281 281 266 240 241 240 209 239 264 202 179 173 160 154 148 167 163 165 186 154 158 165 150 152 157 160 163 164 167 163 165 173 182
346 346 344 342 341 340 337 335 333 332 332 329 324 320 316 315 308 298 294 263 203 181 178 218 205 189 258 269 298 305 253 223 230 229 225 228 237 235 209 200 211 219 220 224 230 233 240 244 238 232 221 220 214 203 225 245 249 264 244 233 250 229 220 238 195 174 168 157 156 156 176 163 160 186 166 159 167 159 158 159 162 164 164 166 162 167 172 177
345 345 343 341 340 339 337 334 332 333 333 328 324 322 318 320 320 321 70 128 134 169 208 255 258 194 253 252 254 260 244 235 218 208 216 215 220 232 220 205 215 213 212 215 220 222 222 222 220 228 227 219 210 198 205 218 222 242 244 227 243 247 242 234 192 175 175 157 153 161 181 168 160 179 171 162 170 168 164 162 163 164 164 166 164 169 172 178
343 342 342 341 340 338 336 333 331 333 334 329 327 331 327 336 21 91 126 136 128 203 245 230 195 192 283 258 231 250 260 244 212 199 213 199 198 220 220 215 224 209 203 204 202 204 202 210 217 221 226 213 209 212 214 217 222 234 242 234 224 232 249 244 189 165 174 162 156 163 172 161 158 173 171 167 172 172 167 161 163 164 163 168 167 169 173 177
343 341 341 341 340 338 336 334 331 333 336 330 330 339 344 359 10 70 177 200 219 251 272 262 216 225 272 283 273 278 278 245 203 190 206 188 178 202 216 217 224 213 203 199 194 195 197 216 222 216 219 217 211 215 222 225 228 238 246 247 233 221 234 240 202 162 164 165 170 167 165 165 166 171 176 177 172 171 169 163 167 166 162 171 171 170 175 178
342 341 342 342 341 337 334 333 331 333 336 331 329 334 329 350 357 330 318 272 246 245 259 262 248 245 255 265 272 281 296 277 219 203 196 179 172 183 195 212 221 212 198 206 206 190 198 220 225 219 218 225 222 215 221 229 234 240 247 258 255 238 238 235 205 164 162 171 182 172 168 172 172 170 177 180 173 174 173 167 170 168 164 172 175 172 176 178
341 342 343 342 341 338 333 333 332 335 342 341 337 304 303 346 349 330 327 293 270 248 248 257 254 254 249 249 259 266 282 278 262 235 182 166 178 182 168 194 221 216 187 203 221 198 206 223 223 220 215 224 235 226 217 224 234 242 246 256 261 259 267 251 209 168 162 173 176 172 176 178 169 166 167 170 179 188 179 173 172 169 166 172 178 175 173 176
340 342 343 343 342 338 332 332 332 340 350 340 316 285 308 344 348 337 330 294 287 259 234 243 239 246 244 237 248 250 253 251 252 240 185 166 189 190 176 191 206 219 197 197 217 217 215 215 215 224 222 218 229 234 225 221 227 236 241 245 254 255 267 270 211 171 167 170 161 163 176 183 164 164 168 169 179 189 182 179 174 173 173 173 178 175 170 175
340 342 343 343 342 339 333 332 335 350 344 329 306 304 335 348 348 343 336 272 286 270 222 228 223 228 233 224 223 226 235 236 240 238 191 175 194 187 193 204 193 213 217 204 211 226 237 213 198 215 227 223 222 226 227 226 222 226 233 239 248 247 250 264 241 184 173 169 159 152 167 199 162 161 180 176 175 181 182 186 181 178 178 172 175 176 171 174
340 341 342 342 343 340 334 332 342 346 336 325 326 345 350 346 344 343 335 252 276 270 211 217 218 226 226 214 203 203 219 229 229 237 201 185 194 186 194 212 201 208 214 216 215 221 238 230 205 207 215 223 225 221 219 222 230 224 224 231 245 254 251 258 257 210 178 183 169 155 169 241 176 161 179 185 177 183 190 195 188 181 176 172 175 177 173 173
339 339 340 341 342 340 339 338 336 337 330 317 345 347 342 337 336 333 323 253 279 259 194 187 188 210 204 191 189 187 212 232 220 229 226 196 191 197 204 197 211 216 206 217 229 221 221 224 228 220 209 212 221 227 219 215 227 233 217 217 233 251 258 261 262 239 195 198 184 169 167 236 196 170 179 182 183 191 203 205 189 176 174 175 175 177 176 175
337 337 338 339 339 341 341 310 318 329 318 305 334 337 332 331 328 324 316 213 276 227 171 162 163 177 175 169 171 171 201 220 196 215 224 204 189 193 212 199 197 221 211 208 222 222 209 211 224 231 222 212 212 223 220 212 221 232 223 213 217 232 249 259 263 258 231 196 191 181 163 155 202 195 182 178 183 193 203 208 193 179 179 180 178 178 179 180
335 335 336 336 335 336 328 296 309 313 288 312 326 327 327 324 320 318 308 274 293 185 139 172 173 172 172 159 166 184 212 155 166 202 209 208 199 183 205 215 206 209 214 222 220 210 215 215 216 224 230 225 208 209 212 216 226 229 231 230 220 221 233 246 257 263 246 219 211 188 160 151 221 218 182 175 181 193 200 201 192 186 186 184 180 178 181 183
333 333 334 333 330 332 331 303 287 278 294 316 321 321 321 317 313 309 186 269 280 303 137 170 176 189 176 158 172 203 225 194 190 187 188 203 209 200 205 214 221 221 211 225 238 220 222 224 216 218 227 230 214 202 204 215 226 226 229 241 244 235 231 234 240 254 247 231 231 193 166 163 224 211 183 177 181 190 196 194 188 186 186 184 181 178 179 181
333 331 331 332 326 326 329 307 283 281 301 311 316 319 317 309 298 182 226 247 255 267 122 115 197 186 178 168 181 202 210 229 238 170 177 195 201 207 209 197 220 247 224 221 234 236 241 238 225 223 223 225 223 205 200 211 222 222 222 236 251 252 248 243 231 233 247 242 223 196 182 179 207 205 187 187 187 183 184 189 190 189 188 186 184 182 180 182
332 329 328 327 320 317 317 296 292 305 309 313 323 321 312 297 200 214 224 214 277 251 159 177 192 176 184 186 189 195 202 224 234 190 186 187 189 198 202 190 202 235 245 231 226 228 238 243 240 238 224 219 224 215 201 204 216 223 216 217 236 255 268 275 260 219 232 242 219 203 195 191 206 216 193 189 184 177 178 186 190 191 194 192 189 188 185 183
330 328 324 320 316 310 286 270 294 306 308 319 324 313 301 224 220 235 227 203 257 213 187 206 196 179 191 199 199 190 195 213 222 217 193 183 195 194 198 204 182 195 224 231 226 222 227 234 239 248 237 222 222 217 204 205 210 218 220 203 203 227 245 247 257 227 223 242 221 212 215 209 216 210 188 186 183 179 180 183 187 190 194 195 192 191 190 183
328 326 322 318 316 303 282 282 295 299 307 319 309 286 245 243 228 203 215 254 261 276 311 241 213 200 195 202 212 196 194 205 212 223 203 186 200 198 200 207 192 191 210 210 222 228 226 228 228 237 236 215 217 212 198 206 202 206 212 199 182 189 212 225 244 238 226 249 231 220 224 222 234 216 186 187 189 183 181 182 185 187 190 193 193 191 191 188
327 326 323 317 312 302 290 287 286 281 289 298 287 258 224 237 222 173 205 233 274 306 310 298 298 282 229 206 209 202 200 203 203 220 214 190 198 203 198 205 205 204 207 207 213 215 227 227 213 222 222 195 205 209 206 199 193 206 206 198 198 192 203 214 217 229 231 251 245 232 223 195 209 215 188 187 193 188 185 184 183 185 186 187 190 190 191 193
327 328 325 314 306 302 294 284 277 264 256 262 265 238 224 227 236 202 220 228 249 278 289 289 295 289 265 223 203 204 209 207 199 213 223 199 199 204 191 197 207 207 199 207 209 204 225 236 205 211 220 207 197 195 208 214 202 209 200 209 217 196 190 207 207 220 225 236 249 239 222 187 197 211 191 186 192 189 186 184 181 183 185 183 184 188 190 193
329 331 326 311 300 297 282 268 263 239 222 240 241 230 230 235 261 263 279 275 260 289 308 298 286 271 269 249 211 204 204 209 199 203 223 211 202 207 202 191 196 206 208 200 200 202 216 230 209 205 215 221 204 181 199 216 203 183 203 220 218 186 177 195 230 251 236 228 239 236 254 256 205 228 226 187 180 184 184 184 181 177 180 183 186 189 189 187
326 327 317 299 299 304 287 267 247 215 203 231 232 234 259 264 262 272 288 294 300 317 324 306 294 287 267 251 237 206 193 199 204 201 209 210 205 203 207 200 189 201 212 210 220 222 211 231 217 205 208 216 215 193 199 213 204 180 204 210 202 218 225 185 199 242 233 236 235 225 243 249 201 233 242 195 175 182 183 180 177 167 170 180 186 188 186 182
317 310 297 287 297 326 309 262 229 210 196 232 244 249 269 268 265 278 290 298 306 315 314 296 292 304 289 273 271 231 199 189 200 211 206 208 213 196 200 210 195 196 206 212 225 223 212 245 229 214 207 203 209 208 204 210 207 210 234 187 166 221 228 211 216 210 210 235 245 236 243 237 216 227 227 198 182 181 181 178 174 165 166 173 178 181 182 181
310 302 288 284 307 340 332 261 211 217 204 228 248 252 263 268 268 274 283 290 296 301 297 283 274 290 293 291 291 272 246 213 198 207 212 206 202 192 194 203 201 195 197 204 218 223 212 235 241 230 212 187 192 209 203 195 198 212 246 247 217 212 194 197 216 202 191 220 229 235 248 243 233 231 218 204 186 179 177 177 176 170 168 169 170 177 182 183
315 314 278 286 316 341 339 324 230 220 217 238 250 255 266 272 272 271 271 274 279 278 276 280 279 281 286 291 294 291 287 271 225 206 210 205 194 192 193 196 205 202 192 196 208 216 215 222 245 261 229 190 188 201 189 177 182 196 218 230 229 229 199 192 201 198 191 203 212 213 231 243 241 234 229 218 198 191 184 178 178 174 171 172 172 176 182 185
323 319 272 290 317 337 338 332 261 225 232 245 248 254 266 273 276 277 277 278 278 273 279 284 277 273 280 287 293 295 297 297 273 232 211 202 201 201 194 191 197 203 197 195 199 205 208 208 230 265 252 219 199 186 181 180 185 187 200 222 222 214 214 212 219 211 196 203 213 192 216 251 247 229 234 229 203 197 191 179 175 173 172 175 177 179 183 185
307 286 279 294 309 323 329 313 269 256 244 247 253 259 265 267 267 270 275 277 275 273 277 280 275 274 274 270 279 285 279 289 290 275 249 218 212 209 200 193 192 197 207 205 195 195 198 195 216 242 253 254 227 188 181 183 187 188 195 214 220 210 206 212 220 209 198 215 223 205 222 256 255 233 236 246 210 189 179 169 168 173 174 175 180 183 183 184
287 289 291 292 297 306 307 278 272 261 246 250 255 258 259 263 266 271 274 272 270 271 268 269 272 273 275 273 275 279 275 277 280 277 282 270 231 210 207 201 194 194 201 211 194 184 189 197 203 228 262 277 269 222 185 182 185 192 197 200 211 218 213 218 223 191 188 212 214 221 237 236 255 256 258 286 215 186 170 166 170 174 172 170 177 184 185 185
297 293 289 292 293 286 266 269 264 256 260 258 258 264 267 271 275 273 271 270 269 270 266 270 274 269 271 276 273 273 274 274 276 277 283 291 295 277 238 213 210 206 194 196 191 175 187 196 177 190 230 252 267 265 203 187 187 192 193 190 203 216 215 224 236 208 202 220 206 202 234 227 226 253 269 296 279 175 164 168 172 170 175 181 176 177 184 186
303 286 270 295 298 283 246 255 258 261 271 269 271 274 269 266 265 265 276 286 279 278 287 294 304 301 289 287 289 283 275 267 271 280 287 290 298 306 282 231 220 223 204 194 190 177 184 190 177 188 206 210 224 238 210 186 188 191 189 189 199 210 211 216 227 216 222 237 219 193 214 239 202 211 242 263 269 246 203 181 180 176 181 192 180 167 178 185
304 293 288 306 306 300 289 284 284 285 288 290 289 283 279 280 281 286 308 313 297 306 321 315 333 344 338 338 334 315 307 305 289 274 275 286 285 301 315 304 274 260 248 216 193 186 186 185 189 196 202 206 212 223 224 200 188 187 189 194 200 207 210 206 207 223 211 202 236 222 199 228 225 200 220 241 245 241 221 184 185 186 188 192 182 168 178 184
282 282 297 319 317 311 314 316 328 338 322 313 310 299 298 304 311 310 312 304 301 324 330 322 358 11 1 354 344 323 336 342 326 306 301 311 322 329 327 322 310 291 281 249 188 183 195 186 193 196 202 209 208 221 233 230 209 190 185 193 203 210 216 210 208 222 205 173 246 256 199 210 240 222 218 234 234 227 221 195 179 167 181 194 182 171 178 182
276 273 296 315 307 300 312 319 319 318 312 305 300 299 298 297 297 301 305 302 306 325 326 310 347 8 3 358 346 327 340 351 344 341 346 340 337 339 330 321 321 315 300 264 186 164 165 186 194 195 201 211 217 229 236 240 235 204 189 192 199 205 216 223 221 213 196 196 231 237 197 210 240 229 215 226 222 212 219 213 176 144 146 164 163 163 173 176
280 277 293 314 295 289 301 305 305 307 307 305 304 302 299 297 292 285 290 300 297 301 299 289 313 345 355 356 355 337 336 342 336 338 342 333 328 334 326 313 323 341 326 282 215 160 127 174 200 197 200 205 214 231 241 248 251 229 204 198 197 200 208 221 236 226 209 218 225 213 204 219 239 241 233 217 186 163 158 211 104 127 139 140 137 151 166 170
272 286 300 307 287 287 292 295 300 304 304 303 303 303 307 313 309 298 293 301 297 293 284 285 305 330 343 345 345 323 315 324 323 322 324 321 321 329 323 302 313 334 329 308 284 193 158 184 210 208 213 204 205 219 232 243 251 250 235 213 201 198 198 206 226 236 230 227 221 212 215 231 240 244 259 243 165 123 101 127 44 66 135 142 142 144 152 162
262 286 311 304 288 295 300 298 300 300 298 300 305 316 326 328 319 309 305 309 307 301 288 340 324 338 346 335 326 312 311 315 310 306 308 303 296 296 289 279 299 314 312 307 305 273 172 172 163 147 247 232 206 214 220 229 246 255 253 242 220 204 197 199 205 212 223 228 221 216 222 242 246 229 248 273 261 196 175 172 171 196 173 159 159 155 151 157
273 290 310 273 281 295 298 292 292 292 288 289 299 310 315 313 312 311 308 309 313 308 323 27 355 350 332 313 307 307 311 308 299 297 299 290 279 274 270 269 276 281 279 291 301 290 205 152 128 119 145 269 272 243 219 211 228 245 246 247 248 239 230 218 201 197 208 216 219 218 213 216 214 197 200 228 247 255 232 184 176 200 203 185 182 179 169 167